EHI
2 5 8 8 6 5 4 1 0 0 0 0 0 0 0 0 0 0 0 0 0 0 0 0 0 0 0 0 0 0 0 0 0 0 0 0 0 0 0 0 0 0 0
4 6 9 11 9 6 5 2 0 0 0 0 0 0 0 0 0 0 0 0 0 0 0 0 0 0 0 0 0 0 0 0 0 0 0 0 0 0 0 0 0 0 0
5 6 9 13 12 8 6 3 1 0 0 0 0 0 0 0 0 0 0 0 0 0 0 0 0 0 0 0 0 0 0 0 0 0 0 0 0 0 0 0 0 0 0
4 4 7 12 13 10 8 5 2 1 0 0 0 0 0 0 0 0 0 0 0 0 0 0 0 0 0 0 0 0 0 0 0 0 0 0 0 0 0 0 0 0 0
3 3 5 9 12 12 9 6 3 1 0 0 0 0 0 0 0 0 0 0 0 0 0 0 0 0 0 0 0 0 0 0 0 0 0 0 0 0 0 0 0 0 0
2 3 5 9 12 11 9 6 4 2 0 0 0 0 0 0 0 0 0 0 0 0 0 0 0 0 0 0 0 0 0 0 0 0 0 0 0 0 0 0 0 0 0
1 2 4 8 10 10 8 6 5 3 1 1 1 0 0 0 0 0 0 0 0 0 0 0 0 0 0 0 0 0 0 0 0 0 0 0 0 0 0 0 0 0 0
1 1 3 5 7 7 6 6 5 4 3 2 1 0 0 0 0 0 0 0 0 0 0 0 0 0 0 0 0 0 0 0 0 0 0 0 0 0 0 0 0 0 0
1 1 1 1 2 3 3 3 3 3 3 3 1 0 0 0 0 0 0 0 0 0 0 0 0 0 0 0 0 0 0 0 0 0 0 0 0 0 0 0 0 0 0
1 1 1 0 0 1 1 1 1 1 2 2 1 0 0 0 0 0 0 0 0 0 0 0 0 0 0 0 0 0 0 0 0 0 0 0 0 0 0 0 0 0 0
1 2 2 1 1 1 0 0 0 0 1 1 0 0 0 0 0 0 0 0 0 0 0 0 0 0 0 0 0 0 0 0 0 0 0 0 0 0 0 0 0 0 0
2 3 3 3 2 2 1 0 0 0 0 0 0 0 0 0 0 0 0 0 0 0 0 0 0 0 0 0 0 0 0 0 0 0 0 0 0 0 0 0 0 0 0
3 3 3 3 3 3 1 0 0 0 0 0 0 0 0 0 0 0 0 0 0 0 0 0 0 0 0 0 0 0 0 0 0 0 0 0 0 0 0 0 0 0 0
3 3 2 2 3 3 2 1 0 0 0 0 0 0 0 0 0 0 0 0 0 0 0 0 0 0 0 0 0 0 0 0 0 0 0 0 0 0 0 0 0 0 0
3 3 2 2 1 2 3 2 1 0 0 0 0 0 0 0 0 0 0 0 0 0 0 0 0 0 0 0 0 0 0 0 0 0 0 0 0 0 0 0 0 0 0
3 3 3 2 1 1 2 2 1 1 1 2 1 0 0 0 0 0 0 0 0 0 0 0 0 0 0 0 0 0 0 0 0 0 0 0 0 0 0 0 0 0 0
2 3 3 3 1 0 1 2 3 2 3 3 2 1 1 0 0 0 0 0 0 0 0 0 0 0 0 0 0 0 0 0 0 0 0 0 0 0 0 0 0 0 0
1 2 3 3 2 1 1 2 3 3 3 3 3 2 1 0 0 0 0 0 0 0 0 0 0 0 0 0 0 0 0 0 0 0 0 0 0 0 0 0 0 0 0
0 1 3 3 3 1 1 1 2 2 3 3 2 1 1 0 0 0 0 0 0 0 0 0 0 0 0 0 0 0 0 0 0 0 0 0 0 0 0 0 0 0 0
0 1 2 3 3 2 1 0 0 1 2 1 1 0 0 0 0 0 0 0 0 0 0 0 0 0 0 0 0 0 0 0 0 0 0 0 0 0 0 0 0 0 0
0 0 1 3 3 2 1 0 0 0 0 0 0 0 0 0 0 0 0 0 0 0 0 0 0 0 0 0 0 0 0 0 0 0 0 0 0 0 0 0 0 0 0
0 0 1 2 3 2 1 0 0 0 0 0 0 0 0 0 0 0 0 0 0 0 0 0 0 0 0 0 0 0 0 0 0 0 0 0 0 0 0 0 0 0 0
0 0 0 1 3 2 1 0 0 0 0 0 0 0 0 0 0 0 0 0 0 0 0 0 0 0 0 0 0 0 0 0 0 0 0 0 0 0 0 0 0 0 0
0 0 0 1 2 2 1 0 0 0 0 0 0 0 0 0 0 0 0 0 0 0 0 0 0 0 0 0 0 0 0 0 0 0 0 0 0 0 0 0 0 0 0
0 0 0 0 1 1 1 0 0 0 0 0 0 0 0 0 0 0 0 0 0 0 0 0 0 0 0 0 0 0 0 0 0 0 0 0 0 0 0 0 0 0 0
0 0 0 0 0 1 0 0 0 0 0 0 0 0 0 0 0 0 0 0 0 0 0 0 0 0 0 0 0 0 0 0 0 0 0 0 0 0 0 0 0 0 0
Wind_Speed
4 5 4 7 8 9 10 10 11 11 10 10 11 11 11 11 12 12 12 12 12 12 12 12 13 14 15 15 15 15 15 15 14 14 14 14 14 14 14 13 12 9 14
6 6 5 7 8 9 10 10 11 10 10 10 10 11 11 11 11 12 12 12 12 12 13 13 13 14 15 15 14 14 14 13 12 11 11 11 12 14 15 14 12 9 14
7 7 6 7 8 9 9 10 10 10 10 10 10 10 11 11 11 12 12 12 12 12 13 13 14 14 14 14 13 13 12 11 10 9 8 6 9 13 14 14 13 13 14
7 6 6 7 8 9 9 9 10 9 10 10 9 10 10 11 11 11 11 12 12 12 13 13 14 14 13 13 12 12 11 10 9 8 5 6 7 12 13 14 13 13 13
6 6 6 7 8 8 9 9 9 9 9 9 9 9 10 10 11 11 11 11 12 12 12 13 13 13 13 12 11 10 10 9 9 7 6 7 6 11 13 13 13 13 13
6 6 6 7 8 8 8 8 8 8 8 9 9 9 9 10 10 10 11 11 11 11 11 12 12 12 12 11 10 10 9 9 7 5 7 7 6 10 12 12 12 12 12
5 5 6 7 7 8 8 7 7 7 8 8 8 8 8 9 10 10 10 10 11 11 11 11 11 11 11 10 10 10 10 9 5 5 6 6 7 11 11 12 12 12 12
5 6 5 6 7 7 7 7 7 7 7 8 8 8 8 8 9 9 9 9 10 10 10 10 10 10 9 9 9 9 9 8 7 7 6 5 8 11 11 11 11 11 11
5 5 4 4 5 6 6 6 7 7 7 7 7 7 7 8 8 8 8 9 9 9 9 10 10 9 9 9 8 9 9 9 6 4 6 4 8 10 10 11 11 10 11
4 4 4 3 3 4 4 6 7 7 7 7 7 7 7 7 7 8 7 8 8 8 9 9 9 9 8 8 7 8 8 6 5 5 4 5 9 10 10 10 10 10 10
3 3 4 3 3 3 4 5 6 6 7 6 5 6 5 3 4 5 6 7 8 8 8 8 8 8 7 7 7 7 6 3 4 4 4 6 9 9 9 9 9 10 9
3 2 3 3 3 3 3 3 3 3 3 3 2 3 2 2 3 4 6 6 7 7 6 6 6 5 4 2 3 4 2 3 4 4 4 7 8 8 9 9 9 9 9
3 2 2 3 3 3 3 2 2 2 2 2 2 2 2 3 2 3 2 3 3 3 2 3 2 1 2 2 2 2 3 3 3 3 4 7 7 7 8 8 8 8 8
3 3 2 2 2 2 3 2 2 2 2 1 2 2 2 2 2 2 1 1 1 1 2 1 1 1 2 2 2 3 4 3 3 3 4 7 7 7 7 7 7 7 7
3 3 2 2 2 2 2 2 2 2 2 2 2 2 2 2 2 1 1 1 1 1 1 1 1 2 2 2 2 3 3 4 4 3 3 6 7 6 6 6 6 6 6
4 3 3 3 3 2 2 2 2 2 2 2 2 2 2 2 2 1 1 1 1 1 1 1 1 1 1 2 2 3 3 3 3 3 2 4 6 6 5 5 5 4 5
4 4 3 3 3 3 2 2 2 2 2 2 2 2 2 2 2 1 1 1 1 1 1 1 1 1 2 2 2 2 2 2 2 3 2 2 2 5 5 5 4 4 4
4 4 4 3 4 3 3 3 2 2 2 2 1 2 2 2 2 2 1 1 1 1 1 1 1 1 1 1 1 1 2 2 2 1 2 2 1 2 3 5 5 4 3
4 4 4 4 4 4 3 3 3 2 2 2 2 2 2 2 2 1 1 1 1 1 1 1 1 1 1 1 1 1 1 1 1 1 1 2 2 2 1 2 4 4 3
3 4 4 4 4 4 3 3 2 2 2 1 2 1 2 2 1 1 1 1 1 1 1 1 1 1 1 1 1 2 1 1 1 1 1 1 1 1 1 1 1 2 3
2 3 4 4 4 3 3 2 2 2 1 1 1 2 2 1 1 1 1 1 1 1 1 1 1 2 1 1 2 1 2 1 0 0 1 0 1 1 1 1 1 0 1
2 2 3 4 4 4 2 2 2 2 1 1 1 1 1 1 1 1 1 1 1 1 2 1 1 1 0 1 1 1 0 1 1 1 0 0 0 0 0 1 0 0 0
2 1 1 2 3 3 2 2 2 2 1 1 1 1 1 1 1 1 1 1 2 2 2 2 2 2 1 1 0 1 2 2 1 1 1 1 0 0 0 0 0 0 0
1 2 1 1 2 3 3 3 3 2 2 2 1 1 1 1 1 1 1 1 2 2 2 2 2 1 2 1 1 1 1 1 1 1 2 1 1 1 1 1 0 0 0
2 2 2 2 1 2 2 3 3 2 1 1 1 2 1 1 1 1 1 1 1 1 2 2 1 1 1 2 2 1 1 1 1 1 2 2 1 1 1 1 1 1 1
2 2 1 1 1 1 1 2 2 3 2 2 2 2 2 1 1 1 1 1 1 1 2 2 2 2 2 2 2 1 1 1 1 1 2 2 2 2 2 1 1 1 1
Wind_Direction
101 112 115 103 96 95 93 87 83 79 77 77 77 77 77 76 75 72 69 70 71 72 73 71 71 69 68 68 66 64 64 64 65 66 65 64 65 68 69 70 70 69 73
115 119 114 104 99 97 94 90 84 80 76 78 79 78 77 76 76 74 71 70 70 71 73 71 71 69 68 67 66 65 63 63 63 64 65 62 62 65 67 66 69 73 73
109 115 115 100 99 99 96 92 88 83 79 78 80 80 77 76 75 74 73 72 71 73 72 70 69 68 68 67 66 65 62 58 54 56 60 65 64 65 67 67 71 74 74
113 119 115 101 102 100 97 94 91 87 83 80 81 82 79 77 76 75 74 73 72 72 70 69 69 67 67 66 64 62 57 47 40 45 56 63 63 66 68 68 70 72 75
107 110 113 107 105 102 97 94 93 91 88 82 81 84 83 80 78 77 74 75 75 73 71 70 70 67 64 64 63 59 49 37 36 45 57 61 61 66 68 68 69 70 73
105 104 114 109 109 106 102 99 97 97 94 87 82 84 85 83 80 79 77 77 76 74 73 73 71 69 64 61 57 52 40 29 37 47 56 60 60 67 70 69 69 70 73
108 105 116 109 110 109 106 102 99 98 96 92 87 86 88 85 82 81 80 79 78 75 74 74 72 69 64 59 52 43 34 25 43 53 58 57 60 68 72 71 69 70 73
106 109 113 107 107 108 108 105 99 95 95 93 91 87 89 89 86 86 84 82 82 79 73 72 73 70 64 59 51 38 29 29 44 60 60 56 64 69 70 70 71 71 73
97 107 113 115 109 107 104 99 95 90 88 91 87 83 85 88 86 87 86 85 83 81 77 73 71 70 65 60 49 35 27 27 34 46 63 59 67 69 70 68 68 71 73
87 95 103 106 105 106 102 97 91 85 82 85 82 81 83 86 81 78 81 81 82 82 80 77 74 69 63 58 45 28 18 26 41 50 49 65 71 72 71 70 70 68 73
89 93 97 100 100 103 109 104 99 90 82 82 85 88 89 92 88 75 74 80 82 82 80 77 75 72 64 53 37 21 15 40 46 52 44 67 75 75 73 71 71 69 72
130 105 100 100 107 111 110 114 113 104 98 88 95 103 94 81 83 85 75 76 78 79 79 74 69 67 60 52 24 12 21 42 56 53 45 63 73 75 75 72 71 69 70
139 109 100 106 108 114 116 119 112 102 99 88 87 78 93 94 96 90 88 80 80 84 82 77 67 49 61 54 33 24 30 38 59 56 44 60 68 71 73 70 70 70 71
138 130 110 109 110 108 113 121 117 109 107 90 85 79 87 92 87 89 88 85 88 77 68 62 52 53 60 58 49 41 37 41 59 63 50 55 60 67 71 71 69 70 71
147 145 136 123 120 114 116 129 118 118 115 105 88 63 68 91 99 93 89 80 82 93 95 67 62 57 52 46 48 51 43 44 54 62 56 54 56 58 67 71 68 68 69
159 158 153 143 137 123 114 109 112 111 107 99 97 79 64 80 93 104 103 96 84 79 77 82 83 74 61 51 49 48 51 47 57 63 68 54 52 52 53 58 59 62 64
162 156 153 149 137 131 126 111 94 108 104 94 97 97 79 72 87 87 101 105 93 83 71 69 69 66 67 55 51 47 47 50 60 61 66 68 55 52 53 51 52 58 60
155 151 152 150 147 143 125 112 98 91 89 87 89 93 83 72 78 86 85 94 99 109 106 101 94 69 70 61 46 37 39 36 47 63 71 79 74 62 54 56 49 45 54
153 150 150 146 148 139 125 114 103 93 86 88 82 77 80 73 70 93 96 97 98 113 118 113 89 98 89 62 47 37 36 31 17 35 73 80 80 84 85 64 53 45 44
141 145 147 144 141 135 128 119 109 90 80 73 75 71 76 74 67 86 105 102 88 98 114 114 103 79 94 93 49 27 16 3 12 7 24 70 72 74 69 83 62 30 42
117 136 144 140 143 136 143 147 143 141 128 109 97 83 76 87 90 89 100 118 112 114 113 125 123 114 80 86 67 12 339 331 346 321 356 28 85 101 70 60 85 61 23
91 114 149 147 147 144 149 160 154 146 153 144 117 114 111 92 79 92 124 156 151 136 125 121 114 122 208 160 133 137 310 325 325 308 301 227 237 81 53 41 58 92 97
54 59 106 143 140 140 131 123 118 107 104 107 135 145 137 152 161 139 164 170 165 151 161 165 159 150 191 250 205 156 168 216 279 295 259 245 228 271 250 250 237 360 309
54 44 29 99 136 147 141 146 154 164 181 195 185 175 177 180 169 165 168 184 175 170 171 182 173 178 169 203 273 287 233 171 168 281 296 262 256 270 269 283 275 286 8
65 55 29 27 78 134 161 174 178 190 191 158 165 168 194 207 182 174 191 193 189 183 180 173 177 193 195 196 211 240 279 294 232 193 258 271 281 270 255 257 238 219 218
74 72 44 32 23 49 167 186 191 196 178 165 185 193 196 202 200 198 208 198 212 193 182 185 193 196 207 212 217 213 198 211 218 206 232 249 257 263 261 255 234 214 205